Time,TemperatureF,DewpointF,PressureIn,WindDirection,WindDirectionDegrees,WindSpeedMPH,WindSpeedGustMPH,Humidity,HourlyPrecipIn,Conditions,Clouds,dailyrainin,SoftwareType,DateUTC
2014-10-21 00:04:00,51.5,50.7,30.04,SW,219,0.0,0.0,97,0.00,,,0.00,VWS V14.01,2014-10-21 05:04:00,
2014-10-21 00:14:00,51.5,50.7,30.04,SW,220,0.0,0.0,97,0.00,,,0.00,VWS V14.01,2014-10-21 05:14:00,
2014-10-21 00:19:00,51.4,50.6,30.03,SW,219,0.0,0.0,97,0.00,,,0.00,VWS V14.01,2014-10-21 05:19:00,
2014-10-21 00:24:00,51.2,50.1,30.03,SW,220,0.0,0.0,96,0.00,,,0.00,VWS V14.01,2014-10-21 05:24:00,
2014-10-21 00:29:00,51.0,49.9,30.03,SW,220,0.0,0.0,96,0.00,,,0.00,VWS V14.01,2014-10-21 05:29:00,
2014-10-21 00:34:00,50.9,50.1,30.03,SW,219,0.0,0.0,97,0.00,,,0.00,VWS V14.01,2014-10-21 05:34:00,
2014-10-21 00:44:00,50.7,49.9,30.03,SW,220,0.0,0.0,97,0.00,,,0.00,VWS V14.01,2014-10-21 05:44:00,
2014-10-21 00:49:00,50.6,49.8,30.03,SW,220,2.0,0.0,97,0.00,,,0.00,VWS V14.01,2014-10-21 05:49:00,
2014-10-21 00:54:00,51.0,50.2,30.03,SW,219,0.0,0.0,97,0.00,,,0.00,VWS V14.01,2014-10-21 05:54:00,
2014-10-21 01:04:00,50.9,50.1,30.03,SW,220,0.0,0.0,97,0.00,,,0.00,VWS V14.01,2014-10-21 06:04:00,
2014-10-21 01:09:00,50.9,50.1,30.03,SW,220,0.0,0.0,97,0.00,,,0.00,VWS V14.01,2014-10-21 06:09:00,
2014-10-21 01:14:00,50.8,50.0,30.03,SW,219,0.0,0.0,97,0.00,,,0.00,VWS V14.01,2014-10-21 06:14:00,
2014-10-21 01:19:00,50.6,49.8,30.03,SW,220,0.0,0.0,97,0.00,,,0.00,VWS V14.01,2014-10-21 06:19:00,
2014-10-21 01:24:00,50.5,49.7,30.03,SW,220,0.0,0.0,97,0.00,,,0.00,VWS V14.01,2014-10-21 06:24:00,
2014-10-21 01:34:00,50.0,50.0,30.03,SW,219,0.0,0.0,100,0.00,,,0.00,VWS V14.01,2014-10-21 06:34:00,
2014-10-21 01:44:00,49.6,48.8,30.03,SW,220,0.0,0.0,97,0.00,,,0.00,VWS V14.01,2014-10-21 06:44:00,
2014-10-21 01:49:00,49.4,48.6,30.03,SW,220,0.0,0.0,97,0.00,,,0.00,VWS V14.01,2014-10-21 06:49:00,
2014-10-21 01:59:00,49.2,48.4,30.03,SW,220,0.0,0.0,97,0.00,,,0.00,VWS V14.01,2014-10-21 06:59:00,
2014-10-21 02:04:00,49.1,48.3,30.03,SW,219,0.0,0.0,97,0.00,,,0.00,VWS V14.01,2014-10-21 07:04:00,
2014-10-21 02:14:00,49.1,48.3,30.03,SW,220,0.0,0.0,97,0.00,,,0.00,VWS V14.01,2014-10-21 07:14:00,
2014-10-21 02:19:00,49.1,48.3,30.04,SW,220,0.0,0.0,97,0.00,,,0.00,VWS V14.01,2014-10-21 07:19:00,
2014-10-21 02:24:00,49.1,48.3,30.04,SW,220,0.0,0.0,97,0.00,,,0.00,VWS V14.01,2014-10-21 07:24:00,
2014-10-21 02:29:00,49.0,48.2,30.04,SW,219,0.0,0.0,97,0.00,,,0.00,VWS V14.01,2014-10-21 07:29:00,
2014-10-21 02:34:00,49.0,48.2,30.04,SW,220,0.0,0.0,97,0.00,,,0.00,VWS V14.01,2014-10-21 07:34:00,
2014-10-21 02:44:00,49.0,48.2,30.04,SW,219,0.0,0.0,97,0.00,,,0.00,VWS V14.01,2014-10-21 07:44:00,
2014-10-21 02:49:00,49.2,48.4,30.04,SW,220,0.0,0.0,97,0.00,,,0.00,VWS V14.01,2014-10-21 07:49:00,